Lid_Strength_Index
4 4 4 4 4 4 4 4 4 4 4 4 4 4 4 4 4 8 10 8 5 2 2 4 5 6 7 10 9 9 15 15 15 14 14 12 12 9 8 11 10 9 5 4 3
4 4 4 4 4 4 4 4 4 4 4 5 4 4 4 4 7 9 5 3 1 0 4 5 7 9 10 10 11 11 14 14 12 12 13 10 11 9 8 10 10 7 4 3 3
4 4 4 4 4 5 4 4 4 4 4 4 4 4 4 4 11 10 3 0 1 -0 2 4 5 9 11 11 12 13 13 10 11 10 10 10 10 9 9 9 10 8 6 5 4
5 4 4 5 5 4 4 4 4 4 4 4 4 3 3 6 16 9 -1 -1 -0 3 5 4 8 11 13 12 11 14 12 10 10 8 9 10 9 9 9 8 8 9 4 4 5
5 5 5 5 5 5 4 4 4 4 4 3 3 3 5 10 10 4 -0 1 3 4 6 6 10 11 14 12 11 12 11 10 11 9 9 8 8 9 8 6 6 9 6 5 5
5 5 5 5 5 4 4 4 4 4 3 3 3 2 6 10 3 2 2 2 3 4 4 5 7 8 11 11 12 11 10 10 11 11 11 10 9 9 7 6 7 7 5 5 5
5 5 5 5 4 4 4 4 4 3 3 2 1 2 5 7 3 3 3 4 3 3 4 5 6 8 8 10 8 9 11 10 10 11 12 11 11 11 8 7 7 9 6 5 5
5 4 5 5 4 4 4 3 3 2 1 0 -1 2 7 3 3 3 3 3 2 3 3 3 4 7 8 8 10 12 13 15 11 10 10 10 14 10 8 8 8 11 11 6 5
4 4 4 5 4 4 4 3 2 1 0 -1 3 6 9 2 3 1 2 3 3 3 4 3 6 8 8 11 13 12 16 15 12 9 10 11 13 10 8 9 9 11 13 8 9
4 5 4 4 4 4 3 3 3 0 0 1 2 7 6 5 3 2 2 2 4 4 6 6 9 11 12 13 16 14 14 14 13 10 10 12 12 10 9 8 9 10 10 12 10
5 4 4 4 4 4 4 7 8 8 4 7 7 6 6 4 3 4 3 4 5 7 10 8 12 13 12 12 10 10 12 13 11 8 10 11 12 11 9 10 10 11 10 10 12
5 4 4 4 4 4 6 8 6 6 9 6 6 6 5 4 7 5 3 7 8 11 9 11 13 10 9 10 11 11 12 13 11 10 10 11 12 11 9 10 10 10 10 10 14
5 4 4 4 4 7 8 6 4 5 10 7 5 5 6 5 7 6 5 6 8 10 10 12 11 9 10 11 11 11 13 12 13 10 10 11 13 12 9 8 9 10 10 9 11
5 4 4 4 7 8 8 5 4 5 13 10 8 7 6 6 7 4 3 6 8 11 10 11 9 10 11 12 11 14 10 10 11 12 16 11 17 14 10 10 9 10 10 10 9
5 4 4 5 8 8 6 5 5 6 20 8 8 4 6 8 7 6 3 6 10 10 10 12 11 12 13 12 9 12 9 10 11 13 14 13 16 13 11 12 10 10 11 10 10
5 4 4 7 8 6 4 5 5 13 18 11 8 9 9 8 7 7 7 5 7 10 10 11 7 9 10 9 9 8 10 10 11 14 19 14 15 14 14 11 10 10 11 10 9
5 5 6 6 8 6 5 6 14 17 9 11 11 9 10 10 9 8 10 11 13 16 15 11 11 9 8 12 9 10 13 19 20 20 21 14 15 14 11 10 9 11 10 10 9
5 5 6 5 6 5 7 11 17 12 12 9 9 10 12 10 10 10 11 13 10 12 15 16 17 11 9 11 12 12 13 18 23 22 20 13 17 14 10 10 9 10 10 10 10
6 8 8 6 5 6 9 16 16 12 9 10 11 13 12 10 11 11 12 13 11 11 15 16 16 9 9 9 9 13 15 13 17 16 18 16 14 10 10 11 11 10 10 11 9
10 9 9 7 6 8 11 13 12 8 8 9 15 12 14 13 13 13 13 10 11 9 10 13 17 11 9 8 8 11 10 17 16 22 22 18 17 15 12 12 11 12 12 8 7
10 11 9 6 7 10 15 14 9 6 8 11 12 12 12 13 12 13 13 11 9 10 9 11 14 13 10 12 13 13 15 14 15 17 21 21 18 13 13 12 13 10 8 8 7
13 15 8 7 12 13 13 10 7 8 8 9 10 11 12 12 13 13 13 11 8 9 12 10 13 17 13 10 8 11 13 14 18 19 17 17 17 11 11 10 9 9 8 7 6
14 13 9 9 16 15 12 10 8 9 9 10 11 9 9 12 14 12 11 8 8 10 11 11 14 18 16 13 11 13 11 12 13 14 18 20 19 10 10 10 9 9 8 7 6
14 16 13 13 12 14 14 12 11 8 9 9 10 8 10 12 10 13 12 10 9 9 7 9 13 15 18 16 13 14 13 12 13 18 17 18 16 13 11 11 9 9 8 7 6
14 16 14 17 14 13 13 11 11 12 9 9 10 10 11 14 13 13 12 11 10 9 9 10 15 14 13 13 12 12 13 12 14 14 17 16 15 13 11 10 9 8 7 8 8
14 14 11 12 13 13 12 12 12 11 11 11 11 10 10 12 12 14 12 13 13 10 11 10 15 14 15 12 12 13 12 13 13 13 14 13 14 10 9 8 9 8 8 9 9
11 11 10 12 14 14 13 12 11 10 9 9 9 10 11 11 10 10 10 10 11 11 13 12 14 15 18 13 13 16 14 13 12 12 12 16 13 10 10 10 10 10 10 10 10